Hourly Weather Kozodrza

Today, 20 October, Tuesday

Time Temperature Precipitation Wind Pressure Humidity
00:00 +6°C° 0 mm 2 mps 751 mmHg 85%
01:00 +6°C° 0 mm 2 mps 751 mmHg 87%
02:00 +6°C° 0 mm 2 mps 751 mmHg 88%
03:00 +5°C° 0 mm 2 mps 750 mmHg 88%
04:00 +5°C° 0 mm 2 mps 750 mmHg 88%
05:00 +5°C° 0 mm 2 mps 751 mmHg 88%
06:00 +5°C° 0 mm 2 mps 751 mmHg 88%
07:00 +5°C° 0 mm 2 mps 751 mmHg 89%
08:00 +7°C° 0 mm 2 mps 751 mmHg 83%
09:00 +8°C° 0 mm 2 mps 751 mmHg 77%
10:00 +10°C° 0 mm 3 mps 751 mmHg 71%
11:00 +11°C° 0 mm 3 mps 751 mmHg 69%
12:00 +11°C° 0 mm 4 mps 751 mmHg 67%
13:00 +12°C° 0 mm 4 mps 750 mmHg 67%
14:00 +12°C° 0 mm 4 mps 750 mmHg 69%
15:00 +10°C° 0 mm 5 mps 749 mmHg 72%
16:00 +9°C° 0 mm 5 mps 749 mmHg 74%
17:00 +9°C° 0 mm 5 mps 749 mmHg 76%
18:00 +8°C° 0 mm 5 mps 749 mmHg 77%
19:00 +8°C° 0 mm 6 mps 749 mmHg 79%
20:00 +8°C° 0 mm 6 mps 748 mmHg 76%
21:00 +7°C° 0 mm 6 mps 748 mmHg 74%
22:00 +7°C° 0 mm 6 mps 748 mmHg 72%
23:00 +7°C° 0 mm 5 mps 748 mmHg 71%

Tomorrow, 21 October, Wednesday

Time Temperature Precipitation Wind Pressure Humidity
00:00 +7°C° 0 mm 5 mps 748 mmHg 69%
01:00 +7°C° 0 mm 5 mps 748 mmHg 68%
02:00 +7°C° 0 mm 5 mps 747 mmHg 69%
03:00 +7°C° 0 mm 5 mps 747 mmHg 69%
04:00 +7°C° 0 mm 5 mps 747 mmHg 69%
05:00 +7°C° 0 mm 5 mps 747 mmHg 69%
06:00 +7°C° 0 mm 5 mps 746 mmHg 69%
07:00 +7°C° 0 mm 5 mps 746 mmHg 68%
08:00 +8°C° 0 mm 6 mps 746 mmHg 66%
09:00 +9°C° 0 mm 6 mps 746 mmHg 63%
10:00 +10°C° 0 mm 7 mps 746 mmHg 60%
11:00 +11°C° 0 mm 7 mps 746 mmHg 59%
12:00 +13°C° 0 mm 6 mps 746 mmHg 57%
13:00 +14°C° 0 mm 6 mps 745 mmHg 55%
14:00 +13°C° 0 mm 5 mps 745 mmHg 59%
15:00 +13°C° 0 mm 5 mps 745 mmHg 64%
16:00 +12°C° 0 mm 5 mps 745 mmHg 68%
17:00 +10°C° 0 mm 5 mps 745 mmHg 70%
18:00 +9°C° 0 mm 5 mps 745 mmHg 72%
19:00 +9°C° 0 mm 5 mps 745 mmHg 74%
20:00 +9°C° 0 mm 5 mps 745 mmHg 75%
21:00 +8°C° 0 mm 5 mps 745 mmHg 75%
22:00 +8°C° 0 mm 5 mps 745 mmHg 76%
23:00 +8°C° 0 mm 5 mps 745 mmHg 76%

Day after tomorrow, 22 October, Thursday

Time Temperature Precipitation Wind Pressure Humidity
00:00 +8°C° 0 mm 5 mps 746 mmHg 76%
01:00 +8°C° 0 mm 5 mps 746 mmHg 76%
02:00 +8°C° 0 mm 5 mps 746 mmHg 78%
03:00 +7°C° 0 mm 4 mps 746 mmHg 79%
04:00 +7°C° 0 mm 4 mps 746 mmHg 80%
05:00 +7°C° 0 mm 4 mps 746 mmHg 80%
06:00 +7°C° 0 mm 4 mps 746 mmHg 79%
07:00 +7°C° 0 mm 4 mps 746 mmHg 79%
08:00 +9°C° 0 mm 5 mps 746 mmHg 73%
09:00 +12°C° 0 mm 5 mps 746 mmHg 68%
10:00 +13°C° 0 mm 6 mps 746 mmHg 63%
11:00 +14°C° 0 mm 5 mps 746 mmHg 61%
12:00 +15°C° 0 mm 5 mps 746 mmHg 59%
13:00 +17°C° 0 mm 4 mps 746 mmHg 57%
14:00 +15°C° 0 mm 4 mps 746 mmHg 62%
15:00 +14°C° 0 mm 4 mps 745 mmHg 66%
16:00 +13°C° 0 mm 3 mps 745 mmHg 70%
17:00 +12°C° 0 mm 3 mps 745 mmHg 72%
18:00 +11°C° 0 mm 4 mps 746 mmHg 73%
19:00 +11°C° 0 mm 4 mps 746 mmHg 74%
20:00 +10°C° 0 mm 4 mps 746 mmHg 75%
21:00 +10°C° 0 mm 3 mps 746 mmHg 75%
22:00 +10°C° 0 mm 3 mps 746 mmHg 76%
23:00 +10°C° 0 mm 3 mps 746 mmHg 77%

23 October, Friday

Time Temperature Precipitation Wind Pressure Humidity
00:00 +10°C° 0 mm 4 mps 746 mmHg 78%
01:00 +10°C° 0 mm 4 mps 745 mmHg 79%
02:00 +10°C° 0 mm 4 mps 745 mmHg 80%
03:00 +10°C° 0 mm 4 mps 745 mmHg 80%
04:00 +10°C° 0 mm 4 mps 745 mmHg 81%
05:00 +8°C° 0 mm 4 mps 745 mmHg 81%
06:00 +8°C° 0 mm 4 mps 744 mmHg 82%
07:00 +8°C° 0 mm 4 mps 744 mmHg 82%
08:00 +11°C° 0 mm 4 mps 744 mmHg 79%
09:00 +12°C° 0 mm 4 mps 744 mmHg 75%
10:00 +13°C° 0 mm 4 mps 744 mmHg 71%
11:00 +14°C° 0 mm 4 mps 744 mmHg 69%
12:00 +15°C° 0 mm 4 mps 743 mmHg 67%
13:00 +17°C° 0 mm 4 mps 743 mmHg 65%
14:00 +15°C° 0 mm 4 mps 743 mmHg 69%
15:00 +14°C° 0 mm 3 mps 743 mmHg 74%
16:00 +14°C° 0 mm 3 mps 743 mmHg 79%
17:00 +13°C° 0 mm 3 mps 743 mmHg 81%
18:00 +12°C° 0 mm 3 mps 743 mmHg 82%
19:00 +12°C° 0 mm 3 mps 743 mmHg 84%
20:00 +12°C° 0 mm 3 mps 743 mmHg 84%
21:00 +11°C° 0 mm 3 mps 743 mmHg 85%
22:00 +11°C° 0 mm 3 mps 743 mmHg 85%
23:00 +11°C° 0 mm 3 mps 742 mmHg 85%

24 October, Saturday

Time Temperature Precipitation Wind Pressure Humidity
00:00 +11°C° 0 mm 3 mps 742 mmHg 84%
01:00 +12°C° 0 mm 4 mps 742 mmHg 83%
02:00 +11°C° 0.2 mm 3 mps 742 mmHg 84%
03:00 +11°C° 0.2 mm 3 mps 741 mmHg 85%
04:00 +11°C° 0.2 mm 3 mps 741 mmHg 86%
05:00 +11°C° 0.1 mm 3 mps 741 mmHg 86%
06:00 +11°C° 0.1 mm 3 mps 741 mmHg 87%
07:00 +11°C° 0.1 mm 3 mps 740 mmHg 87%
08:00 +11°C° 0.3 mm 4 mps 740 mmHg 88%
09:00 +12°C° 0.3 mm 4 mps 740 mmHg 89%
10:00 +12°C° 0.3 mm 4 mps 741 mmHg 90%
11:00 +13°C° 0.2 mm 5 mps 741 mmHg 87%
12:00 +13°C° 0.2 mm 6 mps 741 mmHg 84%
13:00 +14°C° 0.2 mm 7 mps 741 mmHg 81%
14:00 +13°C° 0 mm 6 mps 742 mmHg 79%
15:00 +13°C° 0 mm 6 mps 742 mmHg 76%
16:00 +12°C° 0 mm 5 mps 743 mmHg 73%
17:00 +10°C° 0 mm 5 mps 743 mmHg 75%
18:00 +11°C° 0 mm 4 mps 744 mmHg 77%
19:00 +10°C° 0 mm 4 mps 745 mmHg 80%
20:00 +8°C° 0 mm 4 mps 745 mmHg 81%
21:00 +8°C° 0 mm 4 mps 745 mmHg 82%
22:00 +7°C° 0 mm 4 mps 746 mmHg 83%
23:00 +7°C° 0 mm 3 mps 746 mmHg 85%

25 October, Sunday

Time Temperature Precipitation Wind Pressure Humidity
00:00 +7°C° 0 mm 3 mps 746 mmHg 86%
01:00 +5°C° 0 mm 3 mps 747 mmHg 88%
02:00 +6°C° 0 mm 2 mps 747 mmHg 89%
03:00 +5°C° 0 mm 2 mps 747 mmHg 89%
04:00 +5°C° 0 mm 2 mps 747 mmHg 90%
05:00 +5°C° 0 mm 2 mps 747 mmHg 90%
06:00 +6°C° 0 mm 1 mps 747 mmHg 89%
07:00 +6°C° 0 mm 1 mps 747 mmHg 89%
08:00 +8°C° 0 mm 1 mps 747 mmHg 81%
09:00 +9°C° 0 mm 1 mps 747 mmHg 73%
10:00 +11°C° 0 mm 1 mps 747 mmHg 65%
11:00 +12°C° 0 mm 1 mps 747 mmHg 60%
12:00 +13°C° 0 mm 1 mps 747 mmHg 56%
13:00 +13°C° 0 mm 2 mps 746 mmHg 51%
14:00 +12°C° 0 mm 2 mps 746 mmHg 55%
15:00 +12°C° 0 mm 2 mps 746 mmHg 59%
16:00 +10°C° 0 mm 2 mps 745 mmHg 64%
17:00 +9°C° 0 mm 2 mps 746 mmHg 66%
18:00 +8°C° 0 mm 3 mps 746 mmHg 69%
19:00 +7°C° 0 mm 3 mps 746 mmHg 72%
20:00 +7°C° 0 mm 3 mps 746 mmHg 73%
21:00 +7°C° 0 mm 3 mps 745 mmHg 74%
22:00 +5°C° 0 mm 3 mps 745 mmHg 75%
23:00 +5°C° 0 mm 3 mps 745 mmHg 75%

26 October, Monday

Time Temperature Precipitation Wind Pressure Humidity
00:00 +5°C° 0 mm 3 mps 745 mmHg 75%
01:00 +5°C° 0 mm 3 mps 745 mmHg 75%
02:00 +5°C° 0 mm 3 mps 744 mmHg 74%
03:00 +4°C° 0 mm 3 mps 744 mmHg 73%
04:00 +4°C° 0 mm 3 mps 744 mmHg 72%
05:00 +4°C° 0 mm 3 mps 743 mmHg 73%
06:00 +5°C° 0 mm 3 mps 743 mmHg 74%
07:00 +5°C° 0 mm 3 mps 743 mmHg 75%
08:00 +8°C° 0 mm 3 mps 743 mmHg 72%
09:00 +10°C° 0 mm 4 mps 743 mmHg 68%
10:00 +13°C° 0 mm 4 mps 743 mmHg 65%
11:00 +14°C° 0 mm 4 mps 743 mmHg 64%
12:00 +15°C° 0 mm 4 mps 742 mmHg 62%
13:00 +17°C° 0 mm 4 mps 742 mmHg 61%
14:00 +15°C° 0 mm 4 mps 742 mmHg 65%
15:00 +14°C° 0 mm 4 mps 742 mmHg 70%
16:00 +13°C° 0 mm 3 mps 741 mmHg 74%
17:00 +12°C° 0 mm 3 mps 742 mmHg 75%
18:00 +11°C° 0 mm 3 mps 742 mmHg 76%
19:00 +12°C° 0 mm 2 mps 742 mmHg 76%
20:00 +11°C° 0 mm 3 mps 742 mmHg 78%
21:00 +11°C° 0 mm 3 mps 742 mmHg 79%
22:00 +11°C° 0 mm 3 mps 742 mmHg 80%
23:00 +12°C° 0 mm 2 mps 742 mmHg 81%
Show more